Linton Municipal Airport, ND

5:24 PM CST on November 22, 2017 (GMT -0600)
Linton Municipal Airport

Weather History for K7L2 - May, 2014

Change the Weather History Date:

Friday, May 2, 2014

  Actual Average (KBIS) Record (KBIS)
Temperature  
Mean Temperature 53 °F -  
Max Temperature 62 °F 62 °F 94 °F (1955)
Min Temperature 44 °F 35 °F 17 °F (1967)
Degree Days  
Heating Degree Days 12    
Growing Degree Days 3 (Base 50)    
Moisture  
Dew Point 34 °F    
Average Humidity 53    
Maximum Humidity 82    
Minimum Humidity 32    
Precipitation  
Precipitation 0.00 in - - ()
Sea Level Pressure  
Sea Level Pressure 29.81 in    
Wind  
Wind Speed 13 mph (NW)    
Max Wind Speed 23 mph    
Max Gust Speed 33 mph    
Visibility 10 miles    
Events      
Averages and records for this station are not official NWS values.
T = Trace of Precipitation, MM = Missing Value Source: NWS Daily Summary

Daily Weather History Graph

Daily Weather History Graph

Search for Another Location

Airport or City:

Trip Planner

Search our weather history database for the weather conditions in past years. The results will help you decide how hot, cold, wet, or windy it might be!

Date:

Astronomy

May. 02, 2014 Rise Set
Actual Time 6:25 AM CDT 8:50 PM CDT
Civil Twilight 5:52 AM CDT 9:24 PM CDT
Nautical Twilight 5:10 AM CDT 10:06 PM CDT
Astronomical Twilight 4:23 AM CDT 10:54 PM CDT
Moon 9:01 AM CDT (5/2) No Moon Set
Length of Visible Light 15h 32m
Length of Day
14h 25m
Waxing Crescent, 12% of the Moon is Illuminated
May 2
Waxing Crescent
May 6
First Quarter
May 14
Full
May 21
Last Quarter
May 28
New

Hourly Weather History & Observations

Time (CDT) Temp. Windchill Dew Point Humidity Pressure Visibility Wind Dir Wind Speed Gust Speed Precip Events Conditions
12:15 AM 50.0 °F - 30.2 °F 47% 29.83 in 10.0 mi SSW 9.2 mph - N/A   Partly Cloudy
12:35 AM 48.2 °F - 30.2 °F 50% 29.82 in 10.0 mi SW 11.5 mph - N/A   Clear
12:55 AM 46.4 °F 41.5 °F 30.2 °F 53% 29.81 in 10.0 mi SSW 10.4 mph - N/A   Clear
1:15 AM 46.4 °F 41.1 °F 30.2 °F 53% 29.80 in 10.0 mi SW 11.5 mph - N/A   Clear
1:35 AM 46.4 °F 40.4 °F 30.2 °F 53% 29.79 in 10.0 mi SSW 13.8 mph - N/A   Partly Cloudy
1:55 AM 46.4 °F 40.4 °F 32.0 °F 57% 29.77 in 10.0 mi SW 13.8 mph - N/A   Partly Cloudy
2:15 AM 46.4 °F 41.1 °F 32.0 °F 57% 29.76 in 10.0 mi SW 11.5 mph - N/A   Scattered Clouds
2:35 AM 46.4 °F 41.1 °F 32.0 °F 57% 29.75 in 10.0 mi SW 11.5 mph - N/A   Scattered Clouds
2:55 AM 50.0 °F - 32.0 °F 50% 29.74 in 10.0 mi WSW 15.0 mph 20.7 mph N/A   Scattered Clouds
3:15 AM 48.2 °F - 33.8 °F 58% 29.75 in 10.0 mi West 10.4 mph - N/A   Scattered Clouds
3:35 AM 48.2 °F - 35.6 °F 62% 29.75 in 10.0 mi WNW 8.1 mph - N/A   Mostly Cloudy
3:55 AM 46.4 °F 41.9 °F 35.6 °F 66% 29.74 in 10.0 mi West 9.2 mph - N/A   Mostly Cloudy
4:15 AM 46.4 °F 41.9 °F 35.6 °F 66% 29.75 in 10.0 mi WNW 9.2 mph - N/A   Scattered Clouds
4:35 AM 44.6 °F 39.7 °F 35.6 °F 71% 29.76 in 10.0 mi WNW 9.2 mph - N/A   Scattered Clouds
4:55 AM 44.6 °F 39.2 °F 35.6 °F 71% 29.76 in 10.0 mi WNW 10.4 mph - N/A   Scattered Clouds
5:15 AM 46.4 °F 40.1 °F 37.4 °F 71% 29.77 in 10.0 mi NW 15.0 mph 18.4 mph N/A   Mostly Cloudy
5:35 AM 48.2 °F - 39.2 °F 71% 29.78 in 10.0 mi NNW 16.1 mph 25.3 mph N/A   Partly Cloudy
5:55 AM 46.4 °F 40.7 °F 39.2 °F 76% 29.79 in 10.0 mi NNW 12.7 mph 20.7 mph N/A   Scattered Clouds
6:15 AM 44.6 °F 39.7 °F 39.2 °F 81% 29.80 in 10.0 mi NW 9.2 mph - N/A   Partly Cloudy
6:35 AM 44.6 °F 39.2 °F 39.2 °F 81% 29.80 in 10.0 mi NW 10.4 mph - N/A   Clear
6:55 AM 44.6 °F 38.8 °F 39.2 °F 81% 29.81 in 10.0 mi NW 11.5 mph - N/A   Clear
7:15 AM 44.6 °F 38.4 °F 39.2 °F 81% 29.80 in 10.0 mi NW 12.7 mph 18.4 mph N/A   Clear
7:35 AM 46.4 °F 40.7 °F 39.2 °F 76% 29.82 in 10.0 mi NW 12.7 mph 18.4 mph N/A   Clear
7:55 AM 46.4 °F 40.1 °F 39.2 °F 76% 29.83 in 10.0 mi NW 15.0 mph 19.6 mph N/A   Clear
8:15 AM 46.4 °F 39.8 °F 39.2 °F 76% 29.83 in 10.0 mi NNW 16.1 mph 20.7 mph N/A   Clear
8:35 AM 46.4 °F 40.4 °F 37.4 °F 71% 29.83 in 10.0 mi NNW 13.8 mph 20.7 mph N/A   Clear
8:55 AM 50.0 °F - 37.4 °F 62% 29.83 in 10.0 mi North 21.9 mph 26.5 mph N/A   Clear
9:15 AM 50.0 °F - 37.4 °F 62% 29.84 in 10.0 mi NNW 18.4 mph 28.8 mph N/A   Clear
9:35 AM 51.8 °F - 37.4 °F 58% 29.84 in 10.0 mi NNW 17.3 mph 25.3 mph N/A   Clear
9:55 AM 50.0 °F - 35.6 °F 58% 29.83 in 10.0 mi NNW 13.8 mph 23.0 mph N/A   Clear
10:15 AM 51.8 °F - 35.6 °F 54% 29.83 in 10.0 mi NW 16.1 mph 25.3 mph N/A   Clear
10:35 AM 53.6 °F - 35.6 °F 51% 29.83 in 10.0 mi NNW 17.3 mph 24.2 mph N/A   Clear
10:55 AM 53.6 °F - 35.6 °F 51% 29.83 in 10.0 mi NNW 13.8 mph 21.9 mph N/A   Clear
11:15 AM 55.4 °F - 35.6 °F 47% 29.83 in 10.0 mi NW 16.1 mph 20.7 mph N/A   Partly Cloudy
11:35 AM 57.2 °F - 33.8 °F 41% 29.83 in 10.0 mi NNW 16.1 mph 25.3 mph N/A   Partly Cloudy
11:55 AM 57.2 °F - 35.6 °F 44% 29.83 in 10.0 mi NNW 15.0 mph 25.3 mph N/A   Partly Cloudy
12:15 PM 59.0 °F - 32.0 °F 36% 29.83 in 10.0 mi NNW 16.1 mph 26.5 mph N/A   Clear
12:35 PM 59.0 °F - 32.0 °F 36% 29.83 in 10.0 mi NNW 16.1 mph 26.5 mph N/A   Partly Cloudy
12:55 PM 59.0 °F - 32.0 °F 36% 29.82 in 10.0 mi NW 23.0 mph 31.1 mph N/A   Clear
1:15 PM 60.8 °F - 32.0 °F 34% 29.82 in 10.0 mi NNW 19.6 mph 27.6 mph N/A   Clear
1:35 PM 59.0 °F - 32.0 °F 36% 29.81 in 10.0 mi NNW 20.7 mph 29.9 mph N/A   Partly Cloudy
1:55 PM 62.6 °F - 32.0 °F 32% 29.81 in 10.0 mi NNW 18.4 mph 27.6 mph N/A   Partly Cloudy
2:15 PM 59.0 °F - 32.0 °F 36% 29.81 in 10.0 mi NNW 19.6 mph 29.9 mph N/A   Scattered Clouds
2:35 PM 60.8 °F - 32.0 °F 34% 29.81 in 10.0 mi NNW 20.7 mph 33.4 mph N/A   Mostly Cloudy
2:55 PM 60.8 °F - 32.0 °F 34% 29.82 in 10.0 mi NW 18.4 mph 31.1 mph N/A   Scattered Clouds
3:15 PM 60.8 °F - 32.0 °F 34% 29.82 in 10.0 mi NW 19.6 mph 29.9 mph N/A   Partly Cloudy
3:35 PM 59.0 °F - 32.0 °F 36% 29.81 in 10.0 mi NW 21.9 mph 29.9 mph N/A   Scattered Clouds
3:55 PM 59.0 °F - 32.0 °F 36% 29.81 in 10.0 mi NW 16.1 mph 26.5 mph N/A   Mostly Cloudy
4:15 PM 60.8 °F - 32.0 °F 34% 29.81 in 10.0 mi NNW 21.9 mph 26.5 mph N/A   Partly Cloudy
4:35 PM 60.8 °F - 32.0 °F 34% 29.81 in 10.0 mi NNW 20.7 mph 28.8 mph N/A   Mostly Cloudy
4:55 PM 59.0 °F - 32.0 °F 36% 29.82 in 10.0 mi NW 23.0 mph 27.6 mph N/A   Mostly Cloudy
5:15 PM 59.0 °F - 32.0 °F 36% 29.81 in 10.0 mi NW 21.9 mph 28.8 mph N/A   Scattered Clouds
5:35 PM 57.2 °F - 33.8 °F 41% 29.81 in 10.0 mi NNW 17.3 mph 23.0 mph N/A   Partly Cloudy
5:55 PM 59.0 °F - 33.8 °F 39% 29.82 in 10.0 mi NNW 18.4 mph 26.5 mph N/A   Partly Cloudy
6:15 PM 57.2 °F - 32.0 °F 38% 29.83 in 10.0 mi NNW 19.6 mph 26.5 mph N/A   Mostly Cloudy
6:35 PM 57.2 °F - 32.0 °F 38% 29.83 in 10.0 mi NW 18.4 mph 25.3 mph N/A   Overcast
7:15 PM 57.2 °F - 32.0 °F 38% 29.83 in 10.0 mi NNW 15.0 mph 21.9 mph N/A   Scattered Clouds
7:35 PM 57.2 °F - 32.0 °F 38% 29.82 in 10.0 mi NNW 15.0 mph 19.6 mph N/A   Partly Cloudy
7:55 PM 55.4 °F - 32.0 °F 41% 29.83 in 10.0 mi North 10.4 mph - N/A   Clear
8:15 PM 55.4 °F - 32.0 °F 41% 29.83 in 10.0 mi NNW 9.2 mph - N/A   Clear
8:35 PM 53.6 °F - 30.2 °F 41% 29.83 in 10.0 mi NNW 8.1 mph - N/A   Clear
8:55 PM 50.0 °F - 32.0 °F 50% 29.83 in 10.0 mi NW 4.6 mph - N/A   Clear
9:15 PM 50.0 °F - 32.0 °F 50% 29.83 in 10.0 mi NW 4.6 mph - N/A   Clear
9:35 PM 48.2 °F - 32.0 °F 54% 29.83 in 10.0 mi West 3.5 mph - N/A   Clear
9:55 PM 44.6 °F 41.4 °F 32.0 °F 61% 29.84 in 10.0 mi WSW 5.8 mph - N/A   Mostly Cloudy
10:15 PM 46.4 °F 42.9 °F 33.8 °F 62% 29.84 in 10.0 mi SW 6.9 mph - N/A   Overcast
10:35 PM 46.4 °F 42.9 °F 33.8 °F 62% 29.84 in 10.0 mi WSW 6.9 mph - N/A   Overcast
10:55 PM 48.2 °F - 32.0 °F 54% 29.85 in 10.0 mi WNW 10.4 mph - N/A   Overcast
11:15 PM 50.0 °F - 35.6 °F 58% 29.85 in 10.0 mi NW 10.4 mph - N/A   Overcast
11:35 PM 50.0 °F - 39.2 °F 66% 29.85 in 10.0 mi NW 12.7 mph - N/A   Overcast
11:55 PM 48.2 °F - 42.8 °F 82% 29.86 in 8.0 mi NNW 12.7 mph - N/A   Mostly Cloudy